Regional Weather Roundup
Issued by NWS Cleveland, OH

Home | Current Version | Previous Version | Text Only | Print | Product List | Glossary Off
Versions: 1 2 3 4 5 6 7 8 9 10 11 12 13 14 15 16 17 18 19 20 21 22 23 24 25 26 27 28 29 30 31 32 33 34 35 36 37 38 39 40 41 42 43 44 45 46 47 48 49 50

000
ASUS41 KCLE 241710
RWRCLE
OHIO REGIONAL WEATHER ROUNDUP
NATIONAL WEATHER SERVICE WILMINGTON, OH
1200 PM EST FRI FEB 24 2017

NOTE: "FAIR" INDICATES FEW OR NO CLOUDS BELOW 12,000 FEET WITH NO
SIGNIFICANT WEATHER AND/OR OBSTRUCTIONS TO VISIBILITY.

OHZ001>008-015>018-024>027-034-035-043-044-241800-
   NORTHWEST OHIO

CITY           SKY/WX    TMP DP  RH WIND       PRES   REMARKS
DEFIANCE       CLOUDY    67  55  65 S22G28    29.54S
FINDLAY        FAIR      73  54  51 S30G36    29.57F
TOLEDO EXPRESS FAIR      69  57  65 SW20G26   29.55F
TOLEDO EXEC    FAIR      71  57  61 SW26G36   29.56F
LIMA           FAIR      70  56  61 SW23G38   29.57F
$$

OHZ009>014-019>023-028>033-038-089-241800-
   NORTHEAST OHIO

CITY           SKY/WX    TMP DP  RH WIND       PRES   REMARKS
CLE-HOPKINS    FAIR      72  53  51 S17G31    29.66F
CLE-LAKEFRONT  FAIR      73  54  51 S18G31    29.64F
CUY CO. ARPT   PTSUNNY   72  57  60 SW16G26   29.66F
LORAIN-ELYRIA  FAIR      70  54  56 SW24      29.64F
ASHTABULA      FAIR      70  55  59 SW17G31   29.70S
AKRON-CANTON   PTSUNNY   71  53  52 SW23G32   29.71F
WOOSTER        PTSUNNY   68  54  60 SW15G25   29.69F
MANSFIELD      FAIR      70  55  59 S18G29    29.67F
YOUNGSTOWN     CLOUDY    70  53  54 SW21G31   29.71F
$$

OHZ042-051>053-060>062-070>072-077>081-241800-
  SOUTHWEST OHIO

CITY           SKY/WX    TMP DP  RH WIND       PRES   REMARKS
CINC-COVINGTON PTSUNNY   72  55  55 SW17G37   29.65F
CINC-LUNKEN    PTSUNNY   73  57  57 S20G28    29.66F
HAMILTON       FAIR      73  56  54 S14G24    29.64F
DAYTON         PTSUNNY   71  54  54 S26G33    29.62F
WRIGHT-PAT AFB PTSUNNY   72  56  57 S29G36    29.63F
DAYTON GENERAL PTSUNNY   71  55  56 S21G31    29.64F
WILMINGTON     PTSUNNY   70  55  59 S29G36    29.67F
$$

OHZ036-037-039>041-045>050-054>059-063>069-073>076-082>088-241800-
  CENTRAL AND SOUTHEAST OHIO

CITY           SKY/WX    TMP DP  RH WIND       PRES   REMARKS
COLUMBUS       PTSUNNY   72  54  53 SW21G37   29.69F
OSU AIRPORT    FAIR      72  57  59 S23G29    29.67F
BOLTON FIELD   PTSUNNY   72  57  60 S18G28    29.69F
RICKENBACK AFB PTSUNNY   71  55  55 S22G29    29.69F
NEWARK         FAIR      72  53  51 S20G30    29.69F
MARION         FAIR      70  55  59 S29G38    29.64F
LANCASTER      FAIR      73  54  51 S17G25    29.71F
ZANESVILLE     FAIR      72  53  51 SW18G28   29.72F
NEW PHILLY     FAIR      72  54  53 S10G22    29.73F
$$



USA.gov is the U.S. government's official web portal to all federal, state and local government web resources and services.